FENGYUN 1C DEB, 36280

Orbit data source: Space-Track

FENGYUN 1C DEB, 36280 is space debris in SSO originally from a launch on Mon, 10 May 1999 UTC launched from the Taiyaun Space Center, China (TSC). Fengyun 1C debris stems from the Chinese weather satellite Fengyun-1C, which was intentionally destroyed by a Chinese anti-satellite missile in 2007. This event dramatically increased the amount of space debris, with thousands of trackable fragments posing hazards to satellites and human spaceflight. The Fengyun 1C debris cloud has become a focal point in discussions about space sustainability and the need for international regulations to prevent the creation of new debris.

Loading next visibility...
Identifier
36280, 1999-025DXH
Orbit
SSO
Country
Flag of CNCN / PRC
Related business
Manufacturer
Unknown
Mission
Spacecraft
Bus & Motor
Unknown
Mass
Unknown
Launch date (UTC)
1999-05-10 (27 years ago)
Launch vehicle
Unknown
Launch site
Taiyaun Space Center, China (TSC)
Object type
Payload
Rocket body
Debris
Shape & HBR
Unknown shape, 0.1 m
Radar Cross Section
Small (<0.1 m²)

Expand to show TLE details & history
Last TLE update: 2 days ago

TLE from 2 days ago
0 FENGYUN 1C DEB
1 36280U 99025DXH 26253.33934377  .00000803  00000-0  46704-3 0  9996
2 36280  98.7454 280.1099 0062262  17.4565 355.8108 14.10480605901822
Epoch: 2026-09-10T08:08Z
TLE epoch observation values (Epoch: 2026-09-10T08:08:39.301Z)
Latitude
13.02237°
Longitude
166.53959°
Altitude
814.938 km
Speed
7.47 km/s
True Right ascension
18h 32m 19s
True Declination
12° 56' 52"
Sunlit
Object was in daylight at epoch
Visualization orbit readout
Latitude
Unknown
Longitude
Unknown
Altitude
Unknown
Speed
Unknown
Apparent Right ascension
Unknown
Apparent Declination
Unknown
Sunlit
N/A
Visualization observer readout
Local Sidereal Time
08:28:16
Azimuth
Unknown
Elevation
Unknown
Doppler factor
Unknown
Orbital elements
Apogee altitude
899.935 km
Perigee altitude
809.866 km
Semi-major axis
7,233.037 km
Eccentricity
0.00623
Inclination
98.7454°
RAAN
280.1099°
Arg. of periapsis
17.4565°
True anomaly
355.75827°
Mean anomaly
355.8108°
Eccentric anomaly
355.78458°
Mean motion
3.52827 °/min
Orbital period
102.03 mins
BSTAR
0.00046704
Loading maneuver chart data...
Computing Atmospheric mass density...
Loading historical data...
Loading historical data...
Loading historical data...
Loading historical data...
Loading historical data...
Loading historical data...
Loading historical data...

Documentation

Showing up to 5 results
|